Overview Statistics Trail Chart Weather Telemetry Raw packets
 

This is the latest recevied weather packets stored in our database for station/object G8PZT. If no packets are shown the sender has not sent any weather packets the latest 10 day(s).

<< 74 75 76 77 78 79 80 >>
Time Temp. Humidity Pressure Rain* Wind** Luminosity Snow
1787777920 18.89° C 55% - 1.02 mm - - -
1787777320 19.44° C 51% - 0 mm - - -
1787776802 20° C 48% - 0 mm - - -
1787776720 20° C 48% - 0 mm - - -
1787776120 20° C 49% - 0 mm - - -
1787775602 20° C 52% - 0 mm - - -
1787775520 20° C 52% - 0 mm - - -
1787774920 20° C 58% - 0 mm - - -
1787774407 20° C 57% - 0 mm - - -
1787774320 20° C 56% - 0 mm - - -
1787773720 20.56° C 56% - 0 mm - - -
1787773202 20.56° C 56% - 0 mm - - -
1787773120 20.56° C 56% - 0 mm - - -
1787772519 20.56° C 55% - 0 mm - - -
1787772003 20.56° C 55% - 0 mm - - -
1787771919 20.56° C 55% - 0 mm - - -
1787770802 21.11° C 52% - 0 mm - - -
1787770720 21.11° C 52% - 0 mm - - -
1787770120 21.67° C 50% - 0 mm - - -
1787769602 21.67° C 48% - 0 mm - - -
1787769520 21.67° C 47% - 0 mm - - -
1787768920 22.78° C 39% - 0 mm - - -
1787768403 22.78° C 39% - 0 mm - - -
1787768320 22.78° C 39% - 0 mm - - -
1787767720 23.33° C 37% - 0 mm - - -

* Rain latest hour (hover to see other rain measurements)
** Current wind speed in m/s (hover to see current wind gust speed)